Location: Haulchin
(50.3172°N, 3.4360°E)
Time: 13:22:48
(UTC+00:00)

Cosmos 1703 - Pass Details

Date: 23 May 2024
Orbit: 486 x 499 km, 82.5° (Epoch: 18 June)

Event Time Altitude Azimuth Distance (km) Brightness Sun altitude
Exits shadow 02:01:41 12° 168° (SSE) 1,602 5.3 -12.7°
Maximum altitude 02:05:01 48° 95° (E) 668 3.9 -12.4°
Drops below altitude 10° 02:08:38 10° 21° (NNE) 1,714 7.2 -12.1°
Sets 02:10:48 0° 15° (NNE) 2,600 8.3 -11.9°
